Location: Darmstadt
(49.8706°N, 8.6494°E)
Time: 06:49:00
(UTC+01:00)

Cosmos 1503 Rocket - Pass Details

Date: 31 October 2020
Orbit: 752 x 791 km, 74.0° (Epoch: 02 December)

Event Time Altitude Azimuth Distance (km) Brightness Sun altitude
Rises 18:44:43 0° 334° (NNW) 3,233 7.6 -16.7°
Reaches altitude 10° 18:47:05 10° 331° (NNW) 2,308 6.8 -17.1°
Maximum altitude 18:52:16 66° 251° (WSW) 841 4.4 -17.9°
Drops below altitude 10° 18:57:29 10° 170° (S) 2,317 6.4 -18.8°
Sets 18:59:52 0° 168° (SSE) 3,246 7.1 -19.1°
